Regional Weather Roundup
Issued by NWS

Home | Current Version | Previous Version | Graphics & Text | Print | Product List | Glossary On
Versions: 1 2 3 4 5 6 7 8 9 10 11 12 13 14 15 16 17 18 19 20 21 22 23 24 25 26 27
000
ASUS45 KPSR 201310
RWRAZ

ARIZONA HOURLY REGIONAL WEATHER ROUNDUP
NATIONAL WEATHER SERVICE PHOENIX AZ
600 AM MST SUN AUG 20 2017

NOTE: FAIR INDICATES FEW OR NO CLOUDS BELOW 12,000 FEET WITH NO
SIGNIFICANT WEATHER AND/OR OBSTRUCTIONS TO VISIBILITY.

AZZ001>003-036-201400-
NORTHWEST ARIZONA

CITY           SKY/WX    TMP DP  RH WIND       PRES   REMARKS
BULLHEAD CITY  CLEAR     84  45  24 CALM      29.80R
KINGMAN        CLEAR     71  46  40 SE10      30.01R
$$

AZZ004>008-015-016-018-201400-
NORTH CENTRAL ARIZONA

CITY           SKY/WX    TMP DP  RH WIND       PRES   REMARKS
GRAND CANYON   MOCLDY    50  40  68 CALM      30.26R
WILLIAMS       MOCLDY    57  46  67 S7        30.26R
PRESCOTT       PTCLDY    64  49  57 S3        30.15R
FLAGSTAFF      CLOUDY    59  46  62 SW5       30.28R
PAYSON           N/A     66  45  45 CALM      30.17R
PAGE           PTCLDY    76  37  24 SE6       30.05R
$$

AZZ009>014-017-201400-
NORTHEAST ARIZONA

CITY           SKY/WX    TMP DP  RH WIND       PRES   REMARKS
WINSLOW        CLOUDY    68  48  48 SW8       30.11S
SAINT JOHNS    CLOUDY    69  46  43 W7        30.15S
WINDOW ROCK    CLOUDY    64  42  44 CALM      30.22R
SHOW LOW       MOCLDY    64  46  52 S10       30.23R
$$

AZZ540-542>544-546-548-201400-
GREATER PHOENIX AREA

CITY           SKY/WX    TMP DP  RH WIND       PRES   REMARKS
PHOENIX        MOCLDY    85  55  35 E5        29.86R
BUCKEYE        MOCLDY    77  55  47 N6        29.87R
LUKE AFB       MOCLDY    84  56  38 S7        29.86R
DEER VALLEY    CLEAR     81  52  36 CALM      29.89R
SCOTTSDALE     PTCLDY    83  52  34 CALM      29.91R
MESA-FALCON    MOCLDY    86  55  35 E5        29.90
MESA-GATEWAY   MOCLDY    81  55  41 E8        29.90R
CHANDLER       CLEAR     81  55  41 CALM      29.88
$$

AZZ539-553-201400-
SOUTHWEST MARICOPA COUNTY AND PINAL COUNTY

CITY           SKY/WX    TMP DP  RH WIND       PRES   REMARKS
CASA GRANDE    CLEAR     77  60  55 CALM      29.91R
GILA BEND      MOCLDY    81  52  36 CALM      29.85R
$$

AZZ503-504-507>509-201400-
SOUTHEAST ARIZONA

CITY           SKY/WX    TMP DP  RH WIND       PRES   REMARKS
TUCSON         CLEAR     77  59  53 SE9       30.00R
DAVIS-MONTHAN  CLOUDY    76  56  49 S7        29.99R
RYAN FIELD     PTCLDY    77  59  53 E3        30.00
NOGALES        CLOUDY    69  61  75 E5        30.08R
SIERRA VISTA   CLOUDY    68  56  65 S10       30.15S
DOUGLAS        LGT RAIN  65  63  93 CALM      30.11S
SAFFORD        CLOUDY    72  62  71 E5        30.06R
$$

AZZ532-201400-
SOUTHWEST ARIZONA

CITY           SKY/WX    TMP DP  RH WIND       PRES   REMARKS
YUMA           CLEAR     84  74  71 SE9       29.79R
$$

CAZ041-043-047-048-061-525>527-560>570-201400-
SOUTHERN CALIFORNIA

CITY           SKY/WX    TMP DP  RH WIND       PRES   REMARKS
DOWNTOWN L.A.  CLOUDY    69  60  73 CALM      29.92R
L.A. AIRPORT   MOCLDY    67  61  81 SW3       29.93R
SAN DIEGO      CLOUDY    69  59  70 NW3       29.93S
BURBANK        CLOUDY    65  58  78 S3        29.93R
ONTARIO        CLOUDY    64  60  87 SW6       29.94R
RIVERSIDE      CLOUDY    64  61  90 W3        29.94R
PALM SPRINGS   CLEAR     79  55  43 CALM      29.81R
EL CENTRO NAS  CLEAR     77  48  35 CALM      29.78R
IMPERIAL       CLEAR     77  46  33 CALM      29.76R
BLYTHE         CLEAR     82  73  74 S10       29.79R
NEEDLES        CLEAR     87  43  21 CALM      29.81R
$$

NVZ020-UTZ003-201400-
SOUTHERN NEVADA-UTAH

CITY           SKY/WX    TMP DP  RH WIND       PRES   REMARKS
LAS VEGAS      PTCLDY    82  47  29 S3        29.88R
SALT LAKE CITY PTCLDY    70  42  36 S7        30.01R
$$

NMZ009-TXZ055-201400-
NEW MEXICO-WEST TEXAS

CITY           SKY/WX    TMP DP  RH WIND       PRES   REMARKS
ALBUQUERQUE    CLOUDY    70  49  47 SE3       30.15R
EL PASO        HVY RAIN  67  67 100 SW8       30.08R FOG
$$


........................KEY........................
SKY/WX - SKY CONDITION/WEATHER
TMP    - TEMPERATURE IN FAHRENHEIT
DP     - DEW POINT IN FAHRENHEIT
RH     - RELATIVE HUMIDITY IN PERCENT
WIND   - DIRECTION AND SPEED IN MILES PER HOUR (MPH)
VRB    - VARIABLE WIND DIRECTION
PRES   - MEAN SEA LEVEL PRESSURE IN INCHES OF MERCURY
         F - FALLING PRESSURE   R - RISING PRESSURE
         S - STEADY PRESSURE
VSB    - VISIBILITY IN MILES
HX     - HEAT INDEX IN FAHRENHEIT
WCI    - WIND CHILL INDEX IN FAHRENHEIT
TC     - TEMPERATURE IN CELSIUS WHICH IS ALSO KNOWN AS
         TEMPERATURE IN CENTIGRADE
AFB    - AIR FORCE BASE
         LUKE AFB IS LUKE AIR FORCE BASE
         DAVIS-MONTHAN IS DAVIS-MONTHAN AIR FORCE BASE
NAS    - NAVAL AIR STATION
         EL CENTRO NAS IS EL CENTRO NAVAL AIR STATION
N/A    - NOT AVAILABLE





USA.gov is the U.S. government's official web portal to all federal, state and local government web resources and services.